CW0565 Weather Reports


time (UTC)temp
F
wind
direction
speed
knots
gust
knots
rain 1hr
in
rain 24hr
in
rain mn
in
humidity
%
barometer
mb
20260510064512 46 268 5.2 12.2 0.00 0.02 0.02 61 1013.7
20260510063009 45 293 2.6 11.3 0.00 0.02 0.02 65 1013.9
20260510061511 45 301 3.5 8.7 0.00 0.02 0.02 72 1014.0
20260510060021 44 292 0.9 4.3 0.00 0.02 0.02 80 1014.0
20260510054511 43 288 0.9 7.0 0.00 0.02 0.02 82 1014.0
20260510053009 43 308 0.0 3.5 0.00 0.02 0.02 83 1014.0
20260510050009 43 330 0.0 4.3 0.00 0.02 0.02 87 1014.2
20260510044509 43 5 0.0 0.9 0.00 0.02 0.02 88 1014.1
20260510041511 43 5 0.0 3.5 0.00 0.02 0.02 88 1014.4
20260510040012 43 9 0.0 0.0 0.01 0.02 0.02 89 1014.6
20260510034509 43 9 0.0 1.7 0.01 0.02 0.02 88 1014.7
20260510033009 43 9 0.0 1.7 0.02 0.02 0.02 89 1014.9
20260510031511 43 11 0.0 0.9 0.02 0.02 0.02 89 1015.0
20260510030009 43 10 0.0 1.7 0.01 0.01 0.01 89 1015.1
20260510024511 43 11 0.9 4.3 0.01 0.01 0.01 88 1015.4
20260510021526 44 10 0.0 0.9 0.00 0.00 0.00 87 1015.6
20260510020010 44 11 0.0 0.0 0.00 0.00 0.00 87 1015.7
20260510014521 44 11 0.0 0.0 0.00 0.00 0.00 86 1015.8
20260510013010 44 11 0.0 0.0 0.00 0.00 0.00 84 1016.0
20260510011515 45 11 0.0 0.0 0.00 0.00 0.00 84 1016.1
20260510010021 45 11 0.0 0.0 0.00 0.00 0.00 84 1016.2
20260510004510 45 11 0.0 0.0 0.00 0.00 0.00 82 1016.4
20260510003010 45 11 0.0 0.0 0.00 0.00 0.00 80 1016.7
20260510001511 45 11 0.0 0.0 0.00 0.00 0.00 79 1016.8
20260510000010 45 11 0.0 0.0 0.00 0.00 0.00 78 1017.0
20260509234510 45 11 0.0 0.0 0.00 0.00 0.00 77 1017.1
20260509233009 45 11 0.0 0.0 0.00 0.00 0.00 77 1017.2
20260509230022 45 11 0.0 0.0 0.00 0.00 0.00 76 1017.5
20260509224509 45 11 0.0 0.0 0.00 0.00 0.00 75 1017.5
20260509223002 45 11 0.0 0.0 0.00 0.00 0.00 74 1017.6
20260509221502 45 11 0.0 0.0 0.00 0.00 0.00 73 1017.7
20260509220009 45 11 0.0 3.5 0.00 0.00 0.00 74 1017.8
20260509214509 46 9 0.9 5.2 0.00 0.00 0.00 73 1017.8
20260509213010 46 17 1.7 3.5 0.00 0.00 0.00 72 1017.8
20260509211509 47 17 1.7 3.5 0.00 0.00 0.00 71 1018.0
20260509210010 47 142 0.0 1.7 0.00 0.00 0.00 68 1017.9
20260509204509 48 147 0.0 0.9 0.00 0.00 0.00 68 1018.1
20260509203013 48 147 0.0 4.3 0.00 0.00 0.00 66 1018.1
20260509201514 49 184 0.0 0.0 0.00 0.00 0.00 66 1018.3
20260509200010 50 184 0.0 0.9 0.00 0.00 0.00 65 1018.2
20260509194515 51 184 0.0 3.5 0.00 0.00 0.00 64 1018.4
20260509193019 51 184 0.9 2.6 0.00 0.00 0.00 63 1018.4
20260509191510 52 184 0.9 5.2 0.00 0.00 0.00 62 1018.3
20260509190009 52 184 2.6 6.1 0.00 0.00 0.00 60 1018.3
20260509184509 53 184 3.5 7.0 0.00 0.00 0.00 59 1018.2
20260509183014 53 184 3.5 7.0 0.00 0.00 0.00 57 1018.2
20260509181509 54 180 6.1 10.4 0.00 0.00 0.00 56 1018.3
20260509180009 54 201 5.2 8.7 0.00 0.00 0.00 56 1018.2
20260509174510 54 160 4.3 12.2 0.00 0.00 0.00 55 1018.3
20260509173009 54 190 6.1 12.2 0.00 0.00 0.00 54 1018.3
20260509171509 55 188 5.2 13.0 0.00 0.00 0.00 52 1018.5
20260509170014 54 185 6.1 12.2 0.00 0.00 0.00 52 1018.6
20260509164511 55 173 6.1 11.3 0.00 0.00 0.00 52 1018.7
20260509163011 55 186 7.8 11.3 0.00 0.00 0.00 52 1018.8
20260509161510 55 198 7.0 12.2 0.00 0.00 0.00 50 1019.0
20260509160009 55 197 7.8 12.2 0.00 0.00 0.00 50 1019.3
20260509154510 55 203 7.0 10.4 0.00 0.00 0.00 48 1019.4
20260509153027 55 188 4.3 11.3 0.00 0.00 0.00 49 1019.5
20260509151509 55 203 7.0 14.8 0.00 0.00 0.00 48 1019.7
20260509150010 55 186 6.1 12.2 0.00 0.00 0.00 49 1019.8
20260509144510 54 211 7.8 14.8 0.00 0.00 0.00 49 1019.9
20260509143010 55 192 7.8 12.2 0.00 0.00 0.00 47 1020.1
20260509141510 55 188 6.1 14.8 0.00 0.00 0.00 45 1020.3
20260509140009 55 194 7.0 14.8 0.00 0.00 0.00 44 1020.5
20260509134510 54 158 10.4 17.4 0.00 0.00 0.00 45 1020.7
20260509133009 55 207 7.8 13.9 0.00 0.00 0.00 45 1020.7
20260509131509 56 188 6.1 13.9 0.00 0.00 0.00 44 1020.8
20260509130011 56 207 7.0 13.0 0.00 0.00 0.00 45 1020.9
20260509124510 55 201 8.7 13.9 0.00 0.00 0.00 46 1021.0
20260509123009 55 195 8.7 13.9 0.00 0.00 0.00 51 1021.0
20260509121509 55 194 7.0 15.6 0.00 0.00 0.00 50 1021.1
20260509120009 55 169 8.7 15.6 0.00 0.00 0.00 49 1021.3
20260509114510 56 196 8.7 14.8 0.00 0.00 0.00 48 1021.3
20260509113009 56 173 7.0 16.5 0.00 0.00 0.00 45 1021.4
20260509111510 57 188 6.1 12.2 0.00 0.00 0.00 43 1021.5
20260509110010 56 195 6.1 11.3 0.00 0.00 0.00 42 1021.6
20260509104509 56 215 7.8 13.9 0.00 0.00 0.00 39 1021.6
20260509103009 56 191 6.1 11.3 0.00 0.00 0.00 39 1021.7
20260509101513 57 186 7.0 10.4 0.00 0.00 0.00 36 1021.8
20260509100009 58 195 3.5 10.4 0.00 0.00 0.00 35 1021.9
20260509094512 56 199 7.8 12.2 0.00 0.00 0.00 38 1021.9
20260509093010 56 178 4.3 11.3 0.00 0.00 0.00 36 1021.9
20260509090010 54 211 5.2 10.4 0.00 0.00 0.00 41 1022.1
20260509084509 53 156 6.1 11.3 0.00 0.00 0.00 45 1022.2
20260509083011 52 178 5.2 7.0 0.00 0.00 0.00 52 1022.4
20260509081511 50 193 2.6 7.8 0.00 0.00 0.00 60 1022.9
20260509080009 49 15 0.9 3.5 0.00 0.00 0.00 67 1022.7
20260509074511 48 15 0.0 0.9 0.00 0.00 0.00 66 1022.9
20260509073024 47 15 0.0 0.0 0.00 0.00 0.00 68 1022.9
20260509071509 46 15 0.0 0.9 0.00 0.00 0.00 68 1023.0
20260509070010 46 15 0.0 0.9 0.00 0.00 0.00 69 1023.0